Wind_Speed
7 7 8 9 10 11 13 15 18 20 22 25 29 32 35 38 41 44 46 50 53 56 58 61 63 65 66 68 69 70 70 70 70 70 70 70 70 69 69 69 69 69 69 69
6 6 7 8 11 13 15 18 21 23 26 29 33 37 39 42 45 47 51 54 58 61 64 67 69 72 73 75 75 75 75 75 75 75 75 75 75 75 75 75 74 74 74 74
5 6 8 10 13 16 19 21 24 27 30 33 38 42 44 46 48 52 56 60 64 67 71 74 77 79 80 81 80 80 80 80 80 80 80 80 80 79 80 80 80 80 80 80
6 8 11 13 16 19 21 24 27 31 35 38 42 46 47 50 53 57 61 66 70 73 77 80 81 82 83 83 83 83 83 83 82 81 81 80 81 81 81 81 82 82 83 84
9 11 13 15 18 20 23 27 31 34 38 41 45 49 53 55 58 62 67 71 74 78 80 81 82 82 82 82 81 80 78 76 75 73 72 71 70 70 70 71 72 73 75 78
11 14 16 18 20 23 27 31 35 38 42 45 49 53 57 59 64 68 72 75 77 79 79 79 78 78 76 74 71 68 65 62 60 58 56 54 52 50 48 48 49 51 54 58
15 17 19 22 24 27 31 35 38 42 45 49 52 56 60 64 69 72 75 77 78 78 77 75 72 70 66 62 58 56 54 51 49 47 45 42 39 36 34 32 32 34 36 39
18 20 22 24 27 30 34 37 41 45 48 51 54 58 63 68 71 74 76 77 76 74 71 68 65 61 57 53 51 49 47 46 44 41 39 36 33 30 29 28 27 27 28 30
21 23 25 27 29 33 37 40 44 47 51 54 57 61 67 70 72 74 75 74 72 68 64 60 57 54 51 48 47 46 45 44 42 39 36 34 32 30 28 27 26 26 26 27
23 25 27 29 31 35 39 43 47 50 54 57 60 66 68 71 73 74 74 71 67 61 57 54 51 48 47 46 46 46 45 43 41 39 37 34 32 30 29 28 28 28 28 29
25 26 29 30 33 37 41 44 48 52 55 60 65 68 70 72 73 74 72 67 61 55 52 50 48 47 47 47 47 46 44 43 42 40 38 36 34 33 32 31 31 30 30 31
26 27 30 32 35 38 42 46 50 53 58 61 66 69 72 73 73 73 69 62 56 52 50 49 48 48 48 48 47 47 46 44 43 42 40 39 37 36 35 35 34 34 34 34
27 29 32 35 38 41 44 48 51 54 58 62 66 68 72 73 72 69 64 58 52 49 49 49 50 50 50 50 50 49 48 47 46 45 44 43 42 41 41 40 39 39 38 38
28 30 32 35 38 41 45 49 52 55 59 63 66 69 71 72 70 65 60 55 51 49 50 50 51 52 52 53 53 53 52 52 51 50 48 47 47 46 45 45 44 43 42 41
30 31 33 35 39 41 45 49 53 57 61 64 67 69 72 72 69 63 58 53 50 50 51 53 54 55 55 56 56 55 55 55 54 52 51 50 50 49 48 48 47 47 46 44
29 31 33 35 39 42 46 51 55 59 63 65 68 70 72 70 66 60 55 52 51 52 54 56 57 58 58 58 57 57 56 55 54 53 52 51 50 49 49 48 48 47 47 46
29 32 35 38 41 45 48 54 58 61 64 67 68 70 72 69 63 59 54 52 53 55 58 59 60 60 60 60 58 56 54 52 50 49 49 48 48 47 47 46 46 45 45 45
30 33 37 40 44 48 52 56 60 63 65 68 69 71 71 68 62 57 54 54 55 58 60 61 61 60 59 57 54 51 50 49 49 49 49 49 48 47 46 45 44 44 43 42
30 33 38 42 46 50 54 58 62 65 66 68 70 71 69 66 60 55 54 55 58 60 62 62 60 59 56 53 50 49 49 50 50 50 49 49 48 47 46 45 43 42 40 40
31 34 38 43 48 53 56 60 64 66 67 69 70 70 68 64 59 56 56 57 60 62 61 60 58 54 50 49 48 48 49 49 50 51 51 50 49 48 47 45 43 40 38 37
34 37 40 45 50 54 59 63 65 66 68 69 70 69 66 62 58 58 58 60 61 61 59 57 53 50 48 47 47 48 50 51 53 53 53 52 51 50 48 46 43 41 38 35
36 40 43 48 52 56 60 63 65 66 68 69 69 68 64 60 57 58 59 60 60 59 56 52 49 47 46 47 48 50 52 54 55 55 55 54 53 51 49 47 45 42 39 36
36 40 44 48 52 57 60 63 65 66 67 68 69 66 62 58 57 58 59 60 59 57 52 48 45 45 47 49 51 52 54 55 56 56 55 54 53 52 51 49 46 43 40 37
38 41 45 50 54 58 61 63 65 66 67 69 68 65 60 57 57 58 59 58 56 53 48 44 44 45 48 50 52 54 56 57 57 57 56 55 54 52 51 50 48 45 41 38
40 43 46 51 55 58 61 63 65 66 67 68 66 62 58 57 57 58 58 56 52 48 44 43 44 46 49 52 54 55 57 58 58 57 56 56 55 54 53 51 50 47 43 40
40 43 47 51 56 59 61 63 64 66 67 67 64 60 57 56 57 57 56 53 48 44 42 43 45 47 50 53 55 57 58 59 58 57 56 57 57 56 56 54 51 48 45 40
Wind_Direction
69 54 35 18 6 358 353 349 346 344 340 336 332 328 327 325 323 320 317 314 311 309 307 305 303 300 298 295 293 290 288 285 282 280 277 274 272 271 270 268 267 265 263 261
44 25 9 355 348 347 347 344 341 337 334 331 327 324 324 323 321 319 316 313 311 309 308 306 304 302 299 296 294 291 288 285 283 279 276 273 270 268 266 266 265 264 263 261
357 352 347 345 343 343 342 340 337 333 331 329 325 324 324 323 322 319 316 314 313 311 309 307 306 304 302 299 297 294 291 288 286 283 279 276 273 270 267 265 263 262 261 260
334 336 339 340 340 339 337 336 333 331 329 328 326 323 325 325 322 320 318 316 315 313 312 310 308 306 303 301 299 298 297 296 294 292 289 285 281 277 273 270 267 266 264 262
327 331 335 336 335 335 333 331 330 329 328 328 327 326 326 325 322 320 319 318 317 316 314 312 310 307 306 305 304 303 303 302 302 301 299 296 292 287 282 278 274 271 269 267
324 328 331 331 331 331 330 329 329 328 328 329 329 326 326 325 323 322 321 320 319 317 315 313 312 310 310 309 309 309 309 309 309 308 306 303 299 295 290 284 279 274 271 268
324 326 326 327 328 329 330 330 329 329 330 330 328 326 326 326 324 323 322 322 320 319 317 316 315 315 315 316 317 317 317 316 316 315 314 311 307 302 296 288 281 275 270 266
322 323 324 326 328 329 330 330 331 330 329 328 327 327 326 325 325 324 324 323 322 321 320 320 321 322 323 324 324 324 324 323 323 322 320 318 314 309 303 296 288 281 274 269
321 322 324 326 328 329 330 330 330 328 327 328 327 327 326 326 326 326 325 324 323 323 324 325 327 327 328 328 328 328 329 328 327 327 326 323 320 315 310 304 296 289 283 278
321 321 323 326 328 329 330 330 330 329 328 327 327 327 328 327 327 327 327 326 325 326 328 329 330 331 331 331 331 331 331 330 329 327 325 324 320 316 312 306 300 294 291 287
320 321 324 326 329 331 331 330 329 328 328 327 326 328 328 329 329 329 328 328 328 329 330 331 332 332 331 331 330 329 328 327 326 325 322 320 317 313 309 305 301 296 292 289
321 322 324 327 329 330 331 329 329 329 328 327 327 329 330 330 331 330 329 329 329 330 331 332 332 331 330 328 327 326 325 324 323 321 318 316 313 309 306 303 299 296 293 290
322 324 326 328 329 331 331 329 328 328 328 328 329 330 331 332 331 331 330 329 329 330 331 332 331 329 327 325 324 322 321 320 318 316 314 311 308 305 302 300 297 294 292 290
324 325 327 328 329 330 330 328 328 328 329 330 331 332 332 333 332 331 330 328 329 330 331 331 330 328 326 324 322 321 319 317 315 313 311 308 305 302 299 296 294 292 289 288
324 324 326 327 327 330 330 328 329 330 331 332 332 333 333 333 333 332 331 329 330 330 330 330 329 328 326 325 323 321 319 317 315 313 311 308 305 302 298 295 292 289 287 285
322 323 325 327 327 330 330 329 332 333 333 333 334 334 334 334 333 332 331 330 330 330 330 330 329 328 327 326 324 322 321 320 318 317 315 313 310 307 303 299 295 291 287 283
323 324 326 328 329 332 333 333 334 334 334 334 335 335 335 335 334 333 331 330 331 331 331 331 330 329 328 328 327 326 326 326 326 325 323 321 318 315 311 306 301 296 290 285
324 326 328 329 331 335 335 334 335 335 335 335 335 336 336 336 336 334 331 331 331 331 331 331 331 330 331 331 332 333 333 333 332 330 329 327 325 322 318 314 309 303 296 289
324 327 329 331 332 335 335 335 335 335 336 336 336 337 337 337 336 333 332 332 333 333 333 333 333 333 334 336 337 337 337 336 335 335 333 332 330 327 324 320 315 310 303 295
325 328 330 331 333 335 335 335 336 335 336 336 337 338 338 337 336 336 335 335 334 334 334 334 335 337 339 340 340 341 341 341 341 339 337 335 333 331 329 326 322 317 311 303
325 328 331 333 335 335 336 336 335 336 336 337 338 339 339 338 338 337 337 336 336 336 336 337 338 341 342 344 345 345 344 343 342 340 339 337 335 333 331 329 326 322 317 311
326 328 331 333 335 335 336 335 335 335 336 338 339 340 340 339 339 338 337 337 337 337 338 340 342 345 346 347 347 346 345 344 343 342 340 339 337 335 333 331 328 324 320 316
324 328 331 333 334 334 335 335 335 335 337 338 339 341 341 340 339 338 338 338 338 339 341 344 347 349 349 349 348 348 347 346 346 345 344 342 341 339 336 333 329 325 321 317
323 327 330 333 334 334 334 334 334 335 337 339 340 341 342 341 340 340 339 339 340 342 345 348 350 351 351 351 350 350 349 349 349 348 348 347 345 344 341 337 333 328 322 317
322 327 330 332 333 334 334 334 334 336 338 340 341 342 342 342 341 341 341 341 343 346 349 351 352 353 354 353 352 352 352 352 352 352 352 351 349 347 344 341 336 330 324 318
322 326 330 331 332 333 333 333 334 336 339 341 342 343 343 342 342 342 343 344 347 350 352 353 354 355 355 355 354 354 354 354 354 355 355 354 352 350 348 344 340 333 326 318
Height
5850 5849 5847 5847 5846 5845 5843 5840 5838 5835 5832 5828 5824 5820 5815 5810 5805 5799 5792 5785 5777 5769 5760 5752 5743 5734 5726 5717 5708 5700 5692 5685 5678 5673 5668 5664 5660 5657 5654 5651 5649 5648 5648 5648
5851 5849 5849 5847 5846 5844 5841 5839 5835 5833 5829 5825 5820 5815 5810 5805 5798 5791 5783 5774 5765 5756 5747 5737 5726 5717 5707 5697 5688 5679 5670 5662 5654 5648 5642 5638 5635 5633 5631 5629 5627 5625 5625 5626
5850 5850 5848 5847 5844 5842 5839 5836 5833 5829 5825 5821 5815 5809 5804 5797 5789 5780 5771 5761 5751 5741 5731 5720 5708 5697 5685 5674 5663 5653 5643 5634 5626 5620 5614 5610 5607 5605 5603 5602 5602 5601 5601 5602
5850 5849 5848 5846 5843 5840 5837 5834 5830 5825 5820 5815 5809 5801 5795 5788 5779 5769 5759 5748 5737 5725 5713 5700 5688 5675 5661 5649 5637 5626 5616 5606 5598 5591 5585 5580 5577 5576 5575 5575 5576 5576 5576 5577
5850 5848 5846 5844 5842 5839 5835 5831 5826 5821 5814 5809 5801 5792 5786 5778 5768 5758 5746 5734 5722 5709 5695 5681 5667 5653 5639 5627 5615 5604 5594 5585 5576 5568 5560 5555 5551 5549 5548 5549 5550 5551 5552 5553
5848 5846 5844 5842 5839 5836 5832 5827 5822 5815 5809 5802 5793 5784 5776 5766 5756 5744 5732 5719 5706 5692 5678 5663 5649 5635 5622 5609 5598 5588 5578 5569 5561 5552 5544 5538 5533 5530 5528 5527 5528 5530 5531 5531
5846 5844 5842 5839 5836 5832 5827 5823 5816 5809 5802 5795 5786 5776 5767 5755 5743 5731 5718 5705 5690 5675 5661 5647 5633 5620 5608 5596 5585 5576 5566 5558 5549 5541 5533 5526 5521 5518 5515 5514 5514 5514 5515 5515
5844 5842 5839 5836 5832 5828 5822 5817 5810 5802 5795 5787 5778 5768 5758 5745 5732 5718 5704 5690 5674 5660 5646 5632 5619 5607 5595 5585 5576 5567 5558 5549 5541 5533 5526 5519 5514 5510 5507 5505 5504 5504 5504 5504
5841 5839 5836 5832 5828 5823 5817 5810 5804 5796 5787 5779 5769 5760 5748 5734 5721 5707 5692 5676 5661 5647 5634 5621 5609 5597 5587 5577 5568 5559 5550 5542 5534 5526 5520 5514 5508 5504 5501 5498 5496 5495 5495 5494
5838 5836 5832 5828 5824 5818 5812 5804 5797 5787 5777 5768 5760 5749 5737 5722 5709 5695 5680 5665 5651 5637 5624 5612 5601 5590 5580 5571 5561 5552 5544 5535 5528 5520 5514 5508 5503 5499 5495 5492 5490 5487 5486 5484
5835 5832 5828 5824 5818 5813 5806 5799 5790 5780 5770 5758 5747 5741 5725 5710 5696 5682 5667 5653 5639 5627 5616 5604 5594 5583 5574 5564 5555 5547 5538 5530 5523 5515 5509 5503 5498 5493 5489 5485 5482 5479 5477 5474
5831 5828 5824 5819 5814 5808 5801 5793 5784 5775 5764 5751 5738 5730 5711 5697 5683 5668 5655 5642 5630 5618 5607 5597 5587 5577 5567 5558 5549 5541 5532 5524 5516 5509 5502 5496 5490 5485 5481 5476 5472 5469 5466 5463
5827 5823 5819 5814 5810 5803 5795 5786 5777 5768 5758 5745 5731 5721 5701 5687 5672 5657 5644 5632 5622 5612 5601 5591 5580 5570 5561 5551 5542 5533 5524 5516 5508 5500 5493 5487 5481 5475 5470 5465 5461 5457 5454 5451
5822 5818 5815 5810 5803 5797 5790 5781 5771 5761 5749 5736 5723 5710 5695 5680 5666 5652 5639 5627 5616 5606 5595 5585 5574 5563 5553 5543 5533 5523 5514 5505 5497 5489 5482 5475 5468 5463 5457 5452 5448 5444 5440 5437
5817 5814 5810 5805 5798 5792 5784 5775 5765 5754 5741 5728 5715 5701 5686 5672 5658 5644 5632 5621 5610 5600 5589 5578 5567 5556 5545 5534 5523 5513 5503 5493 5484 5476 5468 5461 5454 5448 5442 5437 5432 5428 5425 5422
5813 5809 5805 5801 5794 5787 5779 5768 5757 5745 5733 5719 5706 5692 5677 5663 5648 5636 5624 5614 5604 5593 5582 5570 5558 5547 5535 5524 5512 5501 5491 5481 5471 5462 5454 5446 5439 5432 5426 5420 5416 5411 5408 5405
5809 5804 5799 5794 5787 5780 5771 5760 5749 5737 5724 5711 5698 5686 5670 5656 5642 5629 5617 5607 5596 5585 5573 5561 5549 5536 5524 5512 5501 5490 5479 5469 5460 5450 5442 5433 5425 5418 5410 5404 5399 5394 5390 5388
5804 5799 5793 5787 5781 5772 5767 5753 5741 5729 5716 5702 5689 5675 5660 5646 5633 5621 5610 5600 5589 5577 5565 5552 5540 5527 5515 5503 5491 5480 5470 5460 5451 5441 5432 5423 5414 5406 5398 5391 5384 5378 5374 5370
5800 5795 5788 5781 5773 5766 5757 5745 5733 5721 5710 5695 5681 5667 5653 5639 5627 5616 5605 5593 5581 5569 5556 5543 5530 5518 5506 5495 5484 5474 5464 5454 5444 5433 5424 5414 5405 5396 5387 5379 5371 5365 5359 5355
5795 5789 5784 5775 5767 5759 5751 5738 5725 5713 5702 5687 5673 5659 5645 5631 5621 5610 5597 5585 5573 5560 5547 5534 5522 5510 5499 5489 5479 5469 5458 5448 5438 5427 5416 5406 5396 5386 5377 5368 5360 5353 5346 5341
5789 5784 5777 5769 5761 5752 5742 5729 5717 5706 5695 5678 5664 5650 5636 5623 5611 5600 5588 5577 5564 5552 5539 5527 5515 5505 5495 5485 5475 5464 5454 5443 5431 5420 5408 5397 5387 5377 5367 5357 5349 5341 5335 5329
5784 5778 5770 5763 5754 5747 5735 5723 5711 5700 5685 5671 5657 5643 5629 5617 5605 5594 5582 5570 5558 5545 5533 5521 5511 5500 5491 5481 5471 5460 5449 5438 5425 5413 5401 5389 5378 5367 5357 5348 5339 5330 5324 5318
5779 5774 5766 5759 5752 5740 5728 5716 5704 5691 5678 5665 5651 5638 5624 5612 5601 5589 5577 5565 5552 5540 5528 5517 5507 5498 5488 5478 5468 5457 5445 5433 5420 5407 5394 5382 5370 5358 5347 5337 5328 5320 5313 5307
5774 5768 5761 5752 5743 5733 5722 5709 5698 5685 5672 5659 5645 5631 5618 5607 5595 5584 5572 5559 5547 5536 5525 5515 5506 5496 5486 5475 5464 5452 5440 5428 5415 5401 5389 5376 5364 5352 5340 5328 5318 5309 5301 5295
5768 5761 5754 5747 5737 5727 5716 5703 5691 5678 5665 5652 5639 5625 5613 5602 5591 5579 5567 5555 5543 5532 5522 5513 5504 5494 5484 5473 5461 5449 5436 5424 5411 5397 5384 5371 5359 5346 5334 5321 5309 5298 5290 5282
5763 5757 5749 5741 5731 5721 5710 5697 5685 5672 5660 5646 5633 5620 5608 5597 5586 5574 5562 5550 5539 5529 5520 5511 5502 5492 5482 5471 5459 5446 5433 5420 5407 5394 5381 5368 5354 5340 5327 5314 5302 5288 5277 5269